Location: Il Ritiro
(43.4167°N, 13.1333°E)
Time: 17:05:45
(UTC+00:00)

Atlas Centaur 2 - Pass Details

Date: 05 July 2020
Orbit: 459 x 1310 km, 30.4° (Epoch: 10 August)

Event Time Altitude Azimuth Distance (km) Brightness Sun altitude
Rises 22:16:47 0° 255° (WSW) 3,608 5.5 -22.7°
Reaches altitude 10° 22:19:57 10° 240° (WSW) 2,812 4.7 -22.8°
Enters shadow 22:21:25 15° 229° (SW) 2,544 4.4 -22.9°
